When you browse on this site, cookies collect data to enhance your experience and personalize the content and advertising you see.
Visit our Privacy Policy to learn more. By continuing to use the site, you agree to this use of cookies and data.
  • In Lithuania
  • List of Countries
  • For 7 days
  • Water Temperature
  • Weather Map
  • Weather Widgets
  • user-avatar
    Login

    Hourly Weather Ciechanowiec

    Today, 17 October, Thursday

    Time Temperature Precipitation Wind Pressure Humidity
    00:00 +12°C° 0 mm 5 mps 750 mmHg 80%
    01:00 +10°C° 0 mm 5 mps 750 mmHg 81%
    02:00 +10°C° 0 mm 5 mps 750 mmHg 79%
    03:00 +10°C° 0 mm 5 mps 750 mmHg 78%
    04:00 +10°C° 0 mm 5 mps 750 mmHg 76%
    05:00 +9°C° 0 mm 5 mps 750 mmHg 76%
    06:00 +9°C° 0 mm 5 mps 751 mmHg 77%
    07:00 +9°C° 0 mm 5 mps 751 mmHg 78%
    08:00 +12°C° 0 mm 5 mps 751 mmHg 73%
    09:00 +13°C° 0 mm 5 mps 751 mmHg 68%
    10:00 +14°C° 0 mm 6 mps 752 mmHg 63%
    11:00 +15°C° 0 mm 5 mps 752 mmHg 62%
    12:00 +16°C° 0 mm 5 mps 752 mmHg 61%
    13:00 +17°C° 0 mm 5 mps 752 mmHg 60%
    14:00 +17°C° 0 mm 4 mps 752 mmHg 63%
    15:00 +16°C° 0 mm 3 mps 752 mmHg 66%
    16:00 +16°C° 0 mm 2 mps 752 mmHg 69%
    17:00 +15°C° 0 mm 2 mps 752 mmHg 71%
    18:00 +14°C° 0 mm 2 mps 752 mmHg 73%
    19:00 +13°C° 0 mm 3 mps 752 mmHg 75%
    20:00 +12°C° 0 mm 3 mps 752 mmHg 75%
    21:00 +12°C° 0 mm 3 mps 752 mmHg 75%
    22:00 +12°C° 0 mm 3 mps 752 mmHg 75%
    23:00 +12°C° 0 mm 3 mps 752 mmHg 75%

    Tomorrow, 18 October, Friday

    Time Temperature Precipitation Wind Pressure Humidity
    00:00 +11°C° 0 mm 3 mps 752 mmHg 75%
    01:00 +11°C° 0 mm 3 mps 752 mmHg 75%
    02:00 +12°C° 0 mm 2 mps 752 mmHg 76%
    03:00 +12°C° 0 mm 2 mps 752 mmHg 77%
    04:00 +10°C° 0 mm 2 mps 752 mmHg 77%
    05:00 +10°C° 0 mm 2 mps 752 mmHg 78%
    06:00 +10°C° 0 mm 2 mps 752 mmHg 78%
    07:00 +12°C° 0 mm 2 mps 752 mmHg 79%
    08:00 +12°C° 0 mm 3 mps 752 mmHg 74%
    09:00 +14°C° 0 mm 3 mps 752 mmHg 70%
    10:00 +16°C° 0 mm 3 mps 752 mmHg 65%
    11:00 +17°C° 0 mm 3 mps 752 mmHg 64%
    12:00 +18°C° 0 mm 3 mps 752 mmHg 62%
    13:00 +19°C° 0 mm 2 mps 751 mmHg 60%
    14:00 +18°C° 0 mm 2 mps 751 mmHg 64%
    15:00 +17°C° 0 mm 2 mps 751 mmHg 68%
    16:00 +16°C° 0 mm 2 mps 751 mmHg 72%
    17:00 +16°C° 0 mm 2 mps 750 mmHg 73%
    18:00 +15°C° 0 mm 2 mps 750 mmHg 75%
    19:00 +15°C° 0 mm 2 mps 750 mmHg 77%
    20:00 +15°C° 0 mm 2 mps 750 mmHg 77%
    21:00 +14°C° 0 mm 2 mps 750 mmHg 77%
    22:00 +14°C° 0 mm 2 mps 750 mmHg 77%
    23:00 +14°C° 0 mm 2 mps 750 mmHg 77%

    Day after tomorrow, 19 October, Saturday

    Time Temperature Precipitation Wind Pressure Humidity
    00:00 +14°C° 0 mm 2 mps 750 mmHg 76%
    01:00 +14°C° 0 mm 2 mps 750 mmHg 76%
    02:00 +13°C° 0 mm 2 mps 750 mmHg 78%
    03:00 +13°C° 0 mm 1 mps 750 mmHg 79%
    04:00 +12°C° 0 mm 1 mps 750 mmHg 80%
    05:00 +13°C° 0 mm 1 mps 750 mmHg 81%
    06:00 +13°C° 0 mm 1 mps 750 mmHg 81%
    07:00 +13°C° 0 mm 1 mps 750 mmHg 82%
    08:00 +14°C° 0 mm 1 mps 750 mmHg 76%
    09:00 +16°C° 0 mm 1 mps 750 mmHg 70%
    10:00 +18°C° 0 mm 1 mps 750 mmHg 63%
    11:00 +19°C° 0 mm 1 mps 750 mmHg 60%
    12:00 +20°C° 0 mm 1 mps 750 mmHg 57%
    13:00 +21°C° 0 mm 1 mps 750 mmHg 54%
    14:00 +20°C° 0 mm 1 mps 750 mmHg 58%
    15:00 +19°C° 0 mm 1 mps 750 mmHg 63%
    16:00 +18°C° 0 mm 1 mps 750 mmHg 67%
    17:00 +16°C° 0 mm 1 mps 750 mmHg 70%
    18:00 +15°C° 0 mm 1 mps 750 mmHg 74%
    19:00 +15°C° 0 mm 1 mps 750 mmHg 77%
    20:00 +14°C° 0 mm 1 mps 750 mmHg 79%
    21:00 +14°C° 0 mm 2 mps 750 mmHg 80%
    22:00 +14°C° 0 mm 2 mps 750 mmHg 82%
    23:00 +13°C° 0 mm 2 mps 750 mmHg 84%

    20 October, Sunday

    Time Temperature Precipitation Wind Pressure Humidity
    00:00 +13°C° 0 mm 2 mps 750 mmHg 86%
    01:00 +13°C° 0 mm 2 mps 750 mmHg 88%
    02:00 +12°C° 0 mm 2 mps 751 mmHg 89%
    03:00 +12°C° 0 mm 2 mps 751 mmHg 89%
    04:00 +12°C° 0 mm 2 mps 751 mmHg 90%
    05:00 +12°C° 0 mm 2 mps 751 mmHg 90%
    06:00 +12°C° 0 mm 2 mps 751 mmHg 89%
    07:00 +12°C° 0 mm 2 mps 750 mmHg 89%
    08:00 +13°C° 0 mm 3 mps 751 mmHg 83%
    09:00 +14°C° 0 mm 3 mps 751 mmHg 77%
    10:00 +17°C° 0 mm 3 mps 751 mmHg 71%
    11:00 +18°C° 0 mm 3 mps 750 mmHg 67%
    12:00 +19°C° 0 mm 3 mps 750 mmHg 63%
    13:00 +20°C° 0 mm 4 mps 750 mmHg 59%
    14:00 +19°C° 0 mm 3 mps 750 mmHg 62%
    15:00 +19°C° 0 mm 2 mps 750 mmHg 66%
    16:00 +19°C° 0 mm 1 mps 750 mmHg 69%
    17:00 +18°C° 0 mm 1 mps 750 mmHg 71%
    18:00 +16°C° 0 mm 1 mps 750 mmHg 74%
    19:00 +16°C° 0 mm 1 mps 750 mmHg 76%
    20:00 +15°C° 0 mm 1 mps 751 mmHg 78%
    21:00 +15°C° 0 mm 2 mps 751 mmHg 79%
    22:00 +14°C° 0 mm 2 mps 751 mmHg 81%
    23:00 +14°C° 0 mm 2 mps 752 mmHg 83%

    21 October, Monday

    Time Temperature Precipitation Wind Pressure Humidity
    00:00 +13°C° 0 mm 2 mps 752 mmHg 86%
    01:00 +13°C° 0 mm 2 mps 752 mmHg 89%
    02:00 +12°C° 0 mm 2 mps 753 mmHg 91%
    03:00 +12°C° 0 mm 2 mps 753 mmHg 92%
    04:00 +12°C° 0 mm 2 mps 753 mmHg 94%
    05:00 +12°C° 0 mm 2 mps 754 mmHg 94%
    06:00 +12°C° 0 mm 2 mps 754 mmHg 95%
    07:00 +12°C° 0 mm 2 mps 755 mmHg 95%
    08:00 +13°C° 0 mm 2 mps 755 mmHg 89%
    09:00 +14°C° 0 mm 2 mps 756 mmHg 84%
    10:00 +16°C° 0 mm 3 mps 756 mmHg 78%
    11:00 +16°C° 0 mm 3 mps 756 mmHg 75%
    12:00 +16°C° 0 mm 3 mps 756 mmHg 73%
    13:00 +17°C° 0 mm 2 mps 756 mmHg 70%
    14:00 +16°C° 0 mm 2 mps 756 mmHg 73%
    15:00 +15°C° 0 mm 2 mps 756 mmHg 76%
    16:00 +14°C° 0 mm 2 mps 757 mmHg 80%
    17:00 +14°C° 0 mm 2 mps 757 mmHg 83%
    18:00 +13°C° 0 mm 2 mps 757 mmHg 86%
    19:00 +12°C° 0 mm 2 mps 757 mmHg 90%
    20:00 +12°C° 0 mm 2 mps 758 mmHg 90%
    21:00 +11°C° 0 mm 1 mps 758 mmHg 90%
    22:00 +11°C° 0 mm 1 mps 758 mmHg 91%
    23:00 +11°C° 0 mm 1 mps 758 mmHg 91%

    22 October, Tuesday

    Time Temperature Precipitation Wind Pressure Humidity
    00:00 +9°C° 0 mm 2 mps 758 mmHg 92%
    01:00 +9°C° 0 mm 2 mps 758 mmHg 92%
    02:00 +9°C° 0 mm 2 mps 758 mmHg 92%
    03:00 +9°C° 0 mm 2 mps 758 mmHg 91%
    04:00 +9°C° 0 mm 2 mps 758 mmHg 91%
    05:00 +9°C° 0 mm 2 mps 758 mmHg 90%
    06:00 +9°C° 0 mm 2 mps 759 mmHg 89%
    07:00 +9°C° 0 mm 2 mps 759 mmHg 88%
    08:00 +10°C° 0 mm 2 mps 759 mmHg 83%
    09:00 +11°C° 0 mm 3 mps 759 mmHg 78%
    10:00 +12°C° 0 mm 3 mps 759 mmHg 73%
    11:00 +13°C° 0.1 mm 2 mps 759 mmHg 73%
    12:00 +13°C° 0.1 mm 2 mps 759 mmHg 74%
    13:00 +13°C° 0.1 mm 2 mps 759 mmHg 74%
    14:00 +13°C° 0 mm 2 mps 759 mmHg 73%
    15:00 +13°C° 0 mm 2 mps 758 mmHg 73%
    16:00 +12°C° 0 mm 2 mps 758 mmHg 72%
    17:00 +12°C° 0 mm 2 mps 758 mmHg 73%
    18:00 +12°C° 0 mm 2 mps 759 mmHg 73%
    19:00 +11°C° 0 mm 3 mps 759 mmHg 74%
    20:00 +10°C° 0 mm 3 mps 759 mmHg 76%
    21:00 +10°C° 0 mm 3 mps 759 mmHg 78%
    22:00 +10°C° 0 mm 3 mps 759 mmHg 81%
    23:00 +9°C° 0 mm 3 mps 759 mmHg 83%
    Show more